SCP
0 0 0 0 0 0 0 0 0 0 0 0 0 0 0 0 0 0 0 0 0 0 0 0 0 0 0 0 0 0 0 0 0 0 0 0 0 0 0 0 0 0 0
0 0 0 0 0 0 0 0 0 0 0 0 0 0 0 0 0 0 0 0 0 0 0 0 0 0 0 0 0 0 0 0 0 0 0 0 0 0 0 0 0 0 0
0 0 0 0 0 0 0 0 0 0 0 0 0 0 0 0 0 0 0 0 0 0 0 0 0 0 0 0 0 0 0 0 0 0 0 0 0 0 0 0 0 0 0
0 0 0 0 0 0 0 0 0 0 0 0 0 0 0 0 0 0 0 0 0 0 0 0 0 0 0 0 0 0 0 0 0 0 0 0 0 0 0 0 0 0 0
0 0 0 0 0 0 0 0 0 0 0 0 0 0 0 0 0 0 0 0 0 0 0 0 0 0 0 0 0 0 0 0 0 0 0 0 0 0 0 0 0 0 0
0 0 0 0 0 0 0 0 0 0 0 0 0 0 0 0 0 0 0 0 0 0 0 0 0 0 0 0 0 0 0 0 0 0 0 0 0 0 0 0 0 0 0
0 0 0 0 0 0 0 0 0 0 0 0 0 0 0 0 0 0 0 0 0 0 0 0 0 0 0 0 0 0 0 0 0 0 0 0 0 0 0 0 0 0 0
0 0 0 0 0 0 0 0 0 0 0 0 0 0 0 0 0 0 0 0 0 0 0 0 0 0 0 0 0 0 0 0 0 0 0 0 0 0 0 0 0 0 0
0 0 0 0 0 0 0 0 0 0 0 0 0 0 0 0 0 0 0 0 0 0 0 0 0 0 0 0 0 0 0 0 0 0 0 0 0 0 0 0 0 0 0
0 0 0 0 0 0 0 0 0 0 0 0 0 0 0 0 0 0 0 0 0 0 0 0 0 0 0 0 0 0 0 0 0 0 0 0 0 0 0 0 0 0 0
0 0 0 0 0 0 0 0 0 0 0 0 0 0 0 0 0 0 0 0 0 0 0 0 0 0 0 0 0 0 0 0 0 0 0 0 0 0 0 0 0 0 0
0 0 0 0 0 0 0 0 0 0 0 0 0 0 0 0 0 0 0 0 0 0 0 0 0 0 0 0 0 0 0 0 0 0 0 0 0 0 0 0 0 0 0
0 0 0 0 0 0 0 0 0 0 0 -0 -0 0 0 0 0 0 0 0 0 0 0 0 0 0 0 0 0 0 0 0 0 0 0 0 0 0 0 0 0 0 0
0 0 0 0 0 0 0 0 0 0 0 0 0 0 0 0 0 0 0 0 0 0 0 0 0 0 0 0 0 0 0 0 0 0 0 0 0 0 0 0 0 0 0
0 0 0 0 0 0 0 0 0 0 0 0 0 0 0 0 0 0 0 0 0 0 0 0 0 0 0 0 0 0 0 0 0 0 0 0 0 0 0 0 0 0 0
0 0 0 0 0 0 0 0 0 0 0 0 0 0 0 0 0 0 0 0 0 0 0 0 0 0 0 0 0 0 0 0 0 0 0 0 0 0 0 0 0 0 0
0 0 0 0 0 0 0 0 0 0 0 0 0 0 0 0 0 0 0 0 0 0 0 0 0 0 0 0 0 0 0 0 0 0 0 0 0 0 0 0 0 0 0
0 0 0 0 0 0 0 0 0 0 0 0 0 0 0 0 0 0 0 0 0 0 0 0 0 0 0 0 0 0 0 0 0 0 0 0 0 0 0 0 0 0 0
0 0 0 0 0 0 0 0 0 0 0 0 0 0 0 0 0 0 0 0 0 0 0 0 0 0 0 0 0 0 0 0 0 0 0 0 0 0 0 0 0 0 0
0 0 0 0 0 0 0 0 0 0 0 0 0 0 0 0 0 0 0 0 0 0 0 0 0 0 0 0 0 0 0 0 0 0 0 0 0 0 0 0 0 0 0
0 0 0 0 0 0 0 0 0 0 0 0 0 0 0 0 0 0 0 0 0 0 0 0 0 0 0 0 0 0 0 0 0 0 0 0 0 0 0 0 0 0 0
0 0 0 0 0 0 0 0 0 0 0 0 0 0 0 0 0 0 0 0 0 0 0 0 0 0 0 0 0 0 0 0 0 0 0 0 0 0 0 0 0 0 0
0 0 0 0 0 0 0 0 0 0 0 0 0 0 0 0 0 0 0 0 0 0 0 0 0 0 0 0 0 0 0 0 0 0 0 0 0 0 0 0 0 0 0
0 0 0 0 0 0 0 0 0 0 0 0 0 0 0 0 0 0 0 0 0 0 0 0 0 0 0 0 0 0 0 0 0 0 0 0 0 0 0 0 0 0 0
0 0 0 0 0 0 0 0 0 0 0 0 0 0 0 0 0 0 0 0 0 0 0 0 0 0 0 0 0 0 0 0 0 0 0 0 0 0 0 0 0 0 0
0 0 0 0 0 0 0 0 0 0 0 0 0 0 0 0 0 0 0 0 0 0 0 0 0 0 0 0 0 0 0 0 0 0 0 0 0 0 0 0 0 0 0
Wind_Speed
6 8 10 10 11 11 11 11 11 10 10 10 9 9 9 9 10 10 10 10 9 9 9 10 10 10 11 11 11 10 10 10 9 9 10 10 11 11 11 10 9 7 11
8 9 10 10 11 11 11 10 10 10 10 10 10 9 9 9 10 10 10 10 10 9 9 10 10 10 10 10 10 10 9 9 8 8 9 10 11 12 12 12 12 8 12
9 9 9 10 10 10 10 10 11 10 10 10 10 10 10 9 10 10 10 10 10 10 9 11 11 11 11 10 10 10 9 8 7 7 6 5 8 13 13 13 13 13 13
9 9 9 10 10 10 10 11 11 11 11 11 11 11 10 10 10 10 10 11 11 12 12 12 12 12 11 11 10 10 9 9 9 8 6 7 7 13 13 13 13 14 14
10 10 9 10 10 11 11 11 11 11 11 11 11 11 11 10 10 10 10 11 12 12 13 13 12 12 11 11 10 10 10 10 10 9 7 7 6 12 13 13 13 13 13
10 10 9 10 10 11 11 11 11 11 11 11 10 10 10 10 10 10 10 11 11 12 13 12 12 12 11 11 11 10 10 11 9 7 7 6 6 11 13 13 13 13 13
9 9 8 9 10 10 10 10 10 10 10 10 10 10 10 10 10 10 11 11 12 12 12 12 12 12 12 11 10 10 10 10 7 6 6 6 8 12 13 12 13 13 13
9 9 8 9 10 10 10 10 10 10 10 10 10 10 10 10 10 11 11 12 12 12 12 12 12 12 11 11 10 10 11 10 9 8 7 6 10 12 12 12 12 12 12
8 8 7 7 8 10 10 10 10 10 10 9 9 9 9 9 10 11 11 11 12 12 12 11 11 11 10 9 9 9 9 10 7 5 8 6 11 12 12 12 12 12 12
6 5 5 7 7 7 7 9 9 9 9 8 8 7 7 9 9 11 11 11 11 11 10 10 9 9 8 7 7 7 8 8 7 7 5 7 12 13 13 13 12 12 11
5 4 4 4 5 6 6 7 6 7 6 6 5 5 5 4 5 6 9 10 10 9 8 7 7 6 5 5 6 7 6 5 6 6 5 10 12 12 13 13 13 12 12
4 4 4 4 4 4 5 5 3 3 3 2 3 3 2 3 4 6 8 8 8 7 6 4 3 2 2 2 4 5 4 6 5 5 6 12 12 12 12 12 12 12 11
4 4 4 3 3 4 3 3 1 1 1 1 3 4 3 3 3 4 3 3 3 3 2 2 1 2 3 3 3 4 5 5 5 5 6 12 12 12 12 12 11 11 11
4 4 3 3 3 4 4 3 2 2 2 2 2 4 3 2 2 2 2 2 2 1 2 2 2 3 4 5 5 6 6 4 4 4 6 12 12 11 11 11 11 10 10
5 3 3 3 3 3 3 2 3 3 3 2 2 3 4 3 3 3 3 2 3 2 2 3 3 5 5 5 5 6 5 5 5 5 4 11 12 11 12 12 11 10 10
5 4 3 3 3 4 3 2 3 3 2 2 2 3 4 3 3 3 3 3 3 2 2 3 4 4 4 4 5 5 5 4 5 5 4 7 12 12 12 12 11 11 10
5 4 3 3 3 4 5 3 3 3 2 2 2 2 3 3 4 3 3 2 2 2 3 3 4 3 3 4 5 5 5 4 4 5 4 3 5 10 12 12 11 11 10
5 4 3 3 3 4 4 3 2 3 3 2 2 2 3 4 5 4 3 2 2 3 3 3 3 3 3 3 3 4 4 4 4 4 4 3 3 4 8 11 11 11 10
4 5 4 3 3 3 4 3 3 2 2 2 2 2 2 3 4 4 2 2 3 2 2 3 3 3 3 3 3 3 3 3 4 4 4 4 4 4 4 7 10 11 11
4 5 5 4 3 3 3 2 2 2 2 2 2 2 3 3 4 3 2 3 3 3 3 3 3 3 2 2 3 4 2 2 3 4 4 3 3 5 4 4 4 6 10
4 4 5 4 4 3 2 2 2 1 1 2 2 2 2 3 3 3 2 2 3 2 2 2 3 2 2 2 2 2 2 2 3 3 3 3 3 3 3 4 3 3 4
4 4 5 4 4 3 2 2 2 2 1 1 1 2 2 2 2 2 2 2 2 2 2 2 2 1 0 1 1 1 1 1 2 2 2 3 3 3 3 4 4 3 3
4 4 3 4 4 4 3 2 2 2 1 1 1 1 1 2 2 2 2 2 2 2 1 1 1 2 0 1 1 1 1 1 0 1 2 3 3 3 3 3 4 4 4
4 4 4 4 4 4 4 3 3 2 2 2 2 2 1 2 1 1 2 2 2 2 2 1 1 1 1 1 1 1 1 2 2 1 1 2 2 3 3 3 3 3 4
4 4 3 3 4 4 4 4 2 1 1 2 2 2 2 1 2 2 2 1 2 2 1 1 1 1 0 0 0 1 1 1 1 2 1 0 1 2 2 2 2 2 3
4 4 3 3 3 3 3 4 4 3 2 2 2 2 2 1 1 2 2 2 2 2 2 1 1 1 0 0 0 1 1 0 0 1 1 1 1 0 1 2 2 2 2
Wind_Direction
79 79 67 67 66 67 68 67 67 70 69 70 71 73 71 69 70 68 64 63 62 63 63 65 65 67 65 63 62 60 61 62 64 67 70 68 64 61 56 55 58 61 65
92 87 75 71 69 69 69 69 69 71 69 69 72 73 72 71 69 66 65 65 64 63 70 71 70 70 67 63 63 61 59 58 60 64 71 71 67 63 63 61 63 65 67
94 92 80 72 72 72 74 74 74 75 74 73 73 73 72 73 73 68 66 65 64 62 75 81 76 72 68 65 61 59 54 48 46 52 65 78 72 66 64 65 66 69 70
92 89 83 77 75 77 77 75 75 76 76 75 76 75 73 74 74 71 69 67 66 65 77 82 77 73 69 66 61 56 48 39 38 46 56 65 67 68 67 68 67 70 70
92 89 85 79 80 83 81 80 78 78 77 76 77 77 75 72 74 74 72 71 70 70 74 77 76 74 70 66 61 54 47 42 45 50 61 65 64 72 71 70 70 70 70
95 93 90 84 85 85 83 82 81 80 79 77 77 77 77 76 77 77 76 73 72 72 75 77 76 74 71 66 61 54 47 43 50 55 60 65 68 74 74 74 73 73 72
100 100 95 90 88 88 86 85 83 80 80 79 79 79 77 79 79 80 80 78 76 75 76 77 76 73 69 65 60 52 47 44 61 62 65 69 74 77 77 77 76 76 76
103 105 103 96 91 90 88 87 85 82 82 82 82 83 84 85 85 85 84 83 79 78 77 77 77 73 68 64 59 52 43 37 61 63 69 72 77 79 79 78 77 78 77
102 112 119 115 103 97 93 89 88 86 85 86 89 90 93 94 90 88 86 86 83 81 80 79 78 75 69 64 58 53 45 39 53 53 68 69 76 78 78 78 79 79 78
107 112 124 128 127 115 103 97 97 96 96 100 99 99 103 102 98 96 89 86 86 84 84 84 82 78 71 62 53 50 45 43 56 53 58 72 77 80 78 77 79 81 82
102 106 107 113 115 119 119 114 115 113 112 117 120 119 124 115 103 98 93 94 94 92 90 90 91 90 78 65 55 49 49 59 61 57 55 71 77 79 77 76 78 81 81
117 117 109 107 109 110 115 129 145 134 147 169 131 130 119 89 90 96 107 108 109 106 102 102 106 87 52 55 57 56 61 64 61 62 60 69 75 77 78 77 78 80 80
119 108 101 102 104 104 103 107 96 98 123 108 99 102 94 96 111 111 118 122 122 122 101 95 85 69 69 63 64 65 61 62 63 59 59 66 72 76 78 77 75 76 77
104 105 111 118 104 102 103 97 95 81 69 56 63 88 83 76 82 96 99 107 108 74 71 68 59 57 58 63 66 68 66 63 69 67 61 64 66 70 77 76 74 74 74
122 120 112 96 102 100 92 88 84 69 57 55 43 73 83 74 72 78 74 62 65 64 57 54 59 57 48 52 60 65 69 69 73 75 64 64 65 68 72 74 72 72 75
126 128 120 119 106 102 97 88 84 84 68 52 53 58 83 82 78 72 69 57 55 56 60 59 61 63 56 54 54 52 57 63 72 83 81 69 65 65 67 67 68 70 75
137 134 129 124 105 100 92 74 73 75 78 57 61 57 82 90 85 78 79 70 59 52 64 62 59 63 71 67 59 53 48 48 59 67 70 74 73 67 67 65 63 65 69
132 129 129 123 107 101 102 88 69 68 65 53 44 33 60 80 83 75 67 66 62 56 61 67 69 63 61 63 56 51 47 37 44 61 67 68 73 74 68 66 62 62 64
139 139 139 125 110 105 102 104 83 71 66 57 53 36 42 72 83 81 62 68 71 63 59 66 63 73 71 72 77 64 51 35 31 46 55 59 68 82 81 72 65 60 60
146 139 136 127 123 113 107 96 83 69 67 67 66 49 43 63 78 82 66 60 69 61 56 64 65 65 79 79 82 79 75 66 47 37 44 51 54 67 73 79 70 61 59
152 144 134 141 141 127 122 109 107 98 78 77 85 88 67 65 76 82 71 58 64 67 68 75 75 70 69 89 86 71 47 68 81 52 37 42 54 60 67 75 69 63 61
158 149 144 145 143 131 122 123 131 119 107 99 73 68 77 78 75 93 97 88 79 73 67 71 79 76 57 97 123 118 97 23 31 65 59 45 43 38 48 63 68 62 61
159 150 149 158 148 138 135 119 109 101 93 114 121 88 64 93 94 89 100 106 109 100 90 82 93 81 24 334 44 88 121 135 85 33 68 65 52 38 35 45 57 52 61
163 151 163 164 152 145 143 148 158 157 157 161 142 136 149 133 120 107 108 114 118 111 118 157 108 98 76 335 355 15 61 116 134 118 20 65 73 61 44 42 49 46 61
153 151 169 157 151 150 156 145 153 144 158 152 130 146 160 150 152 146 136 131 124 130 148 135 100 85 113 163 54 25 17 12 29 119 131 76 43 45 51 50 56 54 68
145 142 142 141 140 146 156 155 164 157 162 159 157 166 164 155 163 173 161 156 150 153 161 154 145 151 273 27 92 100 109 73 345 91 116 126 111 47 49 54 61 56 78